星链-3850 (STARLINK-3850 )

导读 | 豆包AI

STARLINK-3850是美国太空探索技术公司(SpaceX)星链星座的卫星,于2022年4月29日发射。星链旨在构建全球低轨宽带互联网星座,该卫星采用平板设计,搭载Ku/Ka波段通信载荷与霍尔推进器,具备自主避撞能力,服役寿命约5-7年,退役后会再入大气层焚毁,为全球用户提供高速低延迟互联网接入服务。

Basic Information
目录编号:
52342
目录名称:
STARLINK-3850
国际标识:
2022-045M
轨道中心:
EARTH
卫星名称:
星链-3850
卫星全名:
星链-3850 (STARLINK-3850 )
卫星状态:
在轨 (已飞行1416 天)
发射日期:
2022-04-29 UTC
国别 :
美国 (US)
星等 :
--
Orbit Information
数据来源 国际轨道数据 AOE轨道数据
星历时间 2026-03-14T21:28:13+0800
11小时前
查看轨道信息
2026-03-11T10:00:00+0800
3天前
查看轨道信息
半长轴 6917.866km 6917.877km
偏心率 0.0001344 0.0001585
轨道倾角 53.216° 53.212°
近地点辐角 91.762° 10.428°
升交点赤经 177.368° 192.981°
平近点角 268.353° 167.914°
近地点 538.799km 538.643km
远地点 540.659km 540.837km
周期 95.437分钟 95.437分钟
每日圈数 15.088449 15.088413
Detailed Information
固有亮度:
5
最大亮度:
2.5
卫星平台:
Starlink v1.5
覆盖范围:
全球
运营商:
太空探索技术公司
运营商所在国:
美国
制造商(研发单位):
太空探索技术公司
制造商所在国:
美国
使用方式:
暂无
Satellite Introduction
星链(Starlink)计划是由太空探索技术公司(SpaceX)提出的一个巨型低轨卫星互联网星座项目,计划在2019年至2024年间在太空搭建由约1.2万颗卫星组成的“星链”网络,其中1584颗将部署在地球上空550千米处的近地轨道,并从2020年开始工作。该卫星仍在工作。
2D Orbit Map
3D Orbit Map
Orbit Altitude Analysis Chart
Orbit Inclination Analysis Chart
Orbit Comprehensive Analysis Chart
View Comprehensive Chart